sat.trackr.live / text

‹ back to catalog

HULIANWANG DIGUI-28

NORAD 63695 · 2025-086J

PAYLOAD ACTIVE UNKNOWN

§ Identity

Operator
Country
PRC
Launch date
2025-04-28
Launch site
WSC
Launch vehicle
Mass (kg)
RCS (m²)

External: N2YO · Heavens-Above · Gunter

§ Orbital elements

Epoch: 2026-05-25T04:50:14.510112Z

Period
108.73 min
Inclination
86.4987°
Eccentricity
0.0001404
Mean motion
13.24408430 rev/d
Perigee alt
1,166.9 km
Apogee alt
1,169.0 km
Semi-major
7,546.1 km
B*
1.3485e-4
RAAN
320.6999°
Arg perigee
84.0093°
Mean anomaly
276.1201°
Rev number
5,181

§ Raw data

HULIANWANG DIGUI-281 63695U 25086J   26145.20155683  .00000073  00000+0  13485-3 0  99912 63695  86.4987 320.6999 0001404  84.0093 276.1201 13.24408430 51817

JSON: /api/v1/satellites/63695 · /tle

For live sub-satellite position, see the globe view (requires WebGL).

§ Visibility from observer

Set your observer location to see the next 7 days of passes ≥ 10°. The values pass through the URL so the page stays shareable.

No JS? Fill the form by hand. The geolocation button needs JavaScript.